| time (UTC) | temp F | wind direction | speed knots | gust knots | rain 1hr in | rain 24hr in | rain mn in | humidity % | barometer mb |
| 20260506014927 | 66 | 135 | 1.7 | 1.7 | 0.00 | 0.00 | 0.00 | 88 | 1010.1 |
| 20260506014417 | 66 | 135 | 0.9 | 1.7 | 0.00 | 0.00 | 0.00 | 88 | 1010.3 |
| 20260506013907 | 66 | 135 | 0.0 | 1.7 | 0.00 | 0.00 | 0.00 | 88 | 1010.3 |
| 20260506013357 | 66 | 135 | 0.0 | 1.7 | 0.00 | 0.00 | 0.00 | 87 | 1010.4 |
| 20260506012337 | 67 | 135 | 0.9 | 1.7 | 0.00 | 0.00 | 0.00 | 86 | 1010.2 |
| 20260506011827 | 67 | 135 | 0.0 | 1.7 | 0.00 | 0.00 | 0.00 | 86 | 1010.4 |
| 20260506011316 | 67 | 135 | 0.0 | 1.7 | 0.00 | 0.00 | 0.00 | 86 | 1010.4 |
| 20260506010807 | 67 | 135 | 0.0 | 1.7 | 0.00 | 0.00 | 0.00 | 86 | 1011.0 |
| 20260506005747 | 67 | 135 | 0.9 | 1.7 | 0.00 | 0.00 | 0.00 | 86 | 1010.6 |
| 20260506004726 | 67 | 135 | 0.0 | 1.7 | 0.00 | 0.00 | 0.00 | 87 | 1010.7 |
| 20260506004216 | 67 | 135 | 0.0 | 1.7 | 0.00 | 0.00 | 0.00 | 87 | 1010.5 |
| 20260506003157 | 67 | 113 | 1.7 | 1.7 | 0.00 | 0.00 | 0.00 | 86 | 1010.8 |
| 20260506002136 | 67 | 135 | 0.9 | 1.7 | 0.00 | 0.00 | 0.00 | 86 | 1010.7 |
| 20260506000605 | 67 | 113 | 0.0 | 1.7 | 0.00 | 0.00 | 0.00 | 86 | 1010.7 |
| 20260506000103 | 67 | 113 | 0.0 | 1.7 | 0.00 | 0.00 | 0.00 | 86 | 1010.7 |
| 20260505235545 | 67 | 113 | 1.7 | 3.5 | 0.00 | 0.00 | 0.00 | 86 | 1010.6 |
| 20260505235035 | 67 | 113 | 1.7 | 3.5 | 0.00 | 0.00 | 0.00 | 86 | 1010.5 |
| 20260505234525 | 67 | 90 | 0.0 | 1.7 | 0.00 | 0.00 | 0.00 | 85 | 1010.4 |
| 20260505233504 | 67 | 90 | 0.0 | 1.7 | 0.00 | 0.00 | 0.00 | 85 | 1010.4 |
| 20260505232955 | 67 | 90 | 0.9 | 3.5 | 0.00 | 0.00 | 0.00 | 85 | 1010.4 |
| 20260505232444 | 67 | 90 | 0.9 | 3.5 | 0.00 | 0.00 | 0.00 | 85 | 1010.4 |
| 20260505231934 | 67 | 113 | 1.7 | 1.7 | 0.00 | 0.00 | 0.00 | 84 | 1010.4 |
| 20260505231425 | 68 | 135 | 0.0 | 1.7 | 0.00 | 0.00 | 0.00 | 84 | 1010.3 |
| 20260505230404 | 68 | 135 | 0.0 | 3.5 | 0.00 | 0.00 | 0.00 | 84 | 1010.1 |
| 20260505225854 | 68 | 68 | 0.9 | 7.8 | 0.00 | 0.00 | 0.00 | 83 | 1010.0 |
| 20260505225343 | 68 | 45 | 1.7 | 7.8 | 0.00 | 0.00 | 0.00 | 83 | 1009.8 |
| 20260505224833 | 68 | 90 | 3.5 | 7.8 | 0.00 | 0.00 | 0.00 | 83 | 1009.7 |
| 20260505224322 | 68 | 68 | 5.2 | 9.6 | 0.00 | 0.00 | 0.00 | 82 | 1009.8 |
| 20260505223813 | 69 | 90 | 1.7 | 11.3 | 0.00 | 0.00 | 0.00 | 81 | 1009.7 |
| 20260505223303 | 69 | 90 | 5.2 | 11.3 | 0.00 | 0.00 | 0.00 | 81 | 1009.5 |
| 20260505222752 | 69 | 90 | 7.0 | 11.3 | 0.00 | 0.00 | 0.00 | 81 | 1009.4 |
| 20260505222243 | 69 | 68 | 1.7 | 6.1 | 0.00 | 0.00 | 0.00 | 79 | 1009.5 |
| 20260505221733 | 69 | 90 | 4.3 | 7.8 | 0.00 | 0.00 | 0.00 | 77 | 1009.6 |
| 20260505221223 | 70 | 68 | 4.3 | 7.8 | 0.00 | 0.00 | 0.00 | 76 | 1009.4 |
| 20260505220713 | 69 | 90 | 3.5 | 6.1 | 0.00 | 0.00 | 0.00 | 76 | 1009.4 |
| 20260505220202 | 68 | 113 | 1.7 | 3.5 | 0.00 | 0.00 | 0.00 | 79 | 1009.1 |
| 20260505215652 | 67 | 135 | 1.7 | 3.5 | 0.00 | 0.00 | 0.00 | 79 | 1009.4 |
| 20260505215141 | 68 | 113 | 1.7 | 3.5 | 0.00 | 0.00 | 0.00 | 76 | 1009.2 |
| 20260505214631 | 68 | 135 | 1.7 | 3.5 | 0.00 | 0.00 | 0.00 | 77 | 1009.0 |
| 20260505214122 | 69 | 135 | 1.7 | 3.5 | 0.00 | 0.00 | 0.00 | 76 | 1009.2 |
| 20260505213612 | 69 | 135 | 1.7 | 1.7 | 0.00 | 0.00 | 0.00 | 75 | 1009.2 |
| 20260505213101 | 70 | 135 | 1.7 | 1.7 | 0.00 | 0.00 | 0.00 | 74 | 1009.2 |
| 20260505212043 | 72 | 135 | 0.9 | 3.5 | 0.00 | 0.00 | 0.00 | 69 | 1008.9 |
| 20260505211531 | 74 | 135 | 0.9 | 3.5 | 0.00 | 0.00 | 0.00 | 67 | 1008.9 |
| 20260505211022 | 74 | 158 | 0.9 | 3.5 | 0.00 | 0.00 | 0.00 | 65 | 1008.9 |
| 20260505210510 | 74 | 135 | 0.9 | 3.5 | 0.00 | 0.00 | 0.00 | 65 | 1009.0 |
| 20260505205450 | 75 | 158 | 1.7 | 3.5 | 0.00 | 0.00 | 0.00 | 63 | 1008.7 |
| 20260505204940 | 75 | 158 | 1.7 | 3.5 | 0.00 | 0.00 | 0.00 | 63 | 1008.6 |
| 20260505204430 | 76 | 158 | 0.9 | 7.0 | 0.00 | 0.00 | 0.00 | 63 | 1008.6 |
| 20260505203920 | 76 | 90 | 1.7 | 7.0 | 0.00 | 0.00 | 0.00 | 63 | 1008.6 |
| 20260505203410 | 76 | 90 | 1.7 | 5.2 | 0.00 | 0.00 | 0.00 | 63 | 1008.5 |
| 20260505201839 | 75 | 68 | 6.1 | 7.8 | 0.00 | 0.00 | 0.00 | 63 | 1008.7 |
| 20260505201329 | 76 | 113 | 3.5 | 6.1 | 0.00 | 0.00 | 0.00 | 64 | 1008.6 |
| 20260505200820 | 76 | 90 | 1.7 | 7.8 | 0.00 | 0.00 | 0.00 | 63 | 1008.8 |
| 20260505200310 | 76 | 90 | 1.7 | 7.8 | 0.00 | 0.00 | 0.00 | 63 | 1008.8 |
| 20260505195759 | 76 | 68 | 2.6 | 7.0 | 0.00 | 0.00 | 0.00 | 64 | 1008.7 |
| 20260505195249 | 76 | 68 | 3.5 | 9.6 | 0.00 | 0.00 | 0.00 | 63 | 1008.7 |
| 20260505194228 | 76 | 90 | 3.5 | 9.6 | 0.00 | 0.00 | 0.00 | 64 | 1008.5 |
| 20260505193719 | 76 | 90 | 5.2 | 9.6 | 0.00 | 0.00 | 0.00 | 63 | 1008.5 |
| 20260505193208 | 76 | 90 | 2.6 | 7.8 | 0.00 | 0.00 | 0.00 | 62 | 1008.5 |
| 20260505192659 | 77 | 90 | 3.5 | 7.0 | 0.00 | 0.00 | 0.00 | 63 | 1008.5 |
| 20260505192149 | 77 | 68 | 2.6 | 7.8 | 0.00 | 0.00 | 0.00 | 62 | 1008.7 |
| 20260505191639 | 77 | 68 | 3.5 | 7.8 | 0.00 | 0.00 | 0.00 | 63 | 1008.8 |
| 20260505191129 | 76 | 68 | 5.2 | 7.0 | 0.00 | 0.00 | 0.00 | 63 | 1008.6 |
| 20260505190618 | 76 | 113 | 3.5 | 6.1 | 0.00 | 0.00 | 0.00 | 62 | 1008.6 |
| 20260505185559 | 77 | 68 | 2.6 | 7.0 | 0.00 | 0.00 | 0.00 | 62 | 1008.7 |
| 20260505185048 | 77 | 68 | 3.5 | 5.2 | 0.00 | 0.00 | 0.00 | 62 | 1008.6 |
| 20260505184027 | 78 | 68 | 1.7 | 5.2 | 0.00 | 0.00 | 0.00 | 61 | 1008.7 |
| 20260505183518 | 78 | 293 | 0.0 | 5.2 | 0.00 | 0.00 | 0.00 | 64 | 1008.8 |
| 20260505183008 | 77 | 135 | 1.7 | 6.1 | 0.00 | 0.00 | 0.00 | 61 | 1008.5 |
| 20260505181947 | 78 | 293 | 1.7 | 3.5 | 0.00 | 0.00 | 0.00 | 62 | 1008.6 |
| 20260505180928 | 78 | 315 | 0.0 | 3.5 | 0.00 | 0.00 | 0.00 | 60 | 1008.6 |
| 20260505180417 | 77 | 315 | 1.7 | 3.5 | 0.00 | 0.00 | 0.00 | 62 | 1008.4 |
| 20260505175907 | 76 | 293 | 1.7 | 3.5 | 0.00 | 0.00 | 0.00 | 63 | 1008.6 |
| 20260505175357 | 78 | 293 | 1.7 | 1.7 | 0.00 | 0.00 | 0.00 | 58 | 1008.4 |
| 20260505174337 | 75 | 293 | 1.7 | 3.5 | 0.00 | 0.00 | 0.00 | 65 | 1008.5 |
| 20260505173829 | 73 | 293 | 2.6 | 3.5 | 0.00 | 0.00 | 0.00 | 63 | 1008.5 |
| 20260505173316 | 74 | 293 | 1.7 | 3.5 | 0.00 | 0.00 | 0.00 | 61 | 1008.7 |
| 20260505172808 | 74 | 293 | 1.7 | 3.5 | 0.00 | 0.00 | 0.00 | 60 | 1008.8 |
| 20260505171747 | 73 | 293 | 1.7 | 3.5 | 0.00 | 0.00 | 0.00 | 64 | 1008.8 |
| 20260505171235 | 74 | 293 | 1.7 | 3.5 | 0.00 | 0.00 | 0.00 | 71 | 1009.0 |
| 20260505170216 | 71 | 293 | 3.5 | 3.5 | 0.00 | 0.00 | 0.00 | 73 | 1008.8 |
| 20260505165705 | 71 | 293 | 3.5 | 3.5 | 0.00 | 0.00 | 0.00 | 69 | 1008.9 |
| 20260505165155 | 75 | 293 | 0.9 | 1.7 | 0.00 | 0.00 | 0.00 | 67 | 1009.0 |
| 20260505164646 | 74 | 270 | 1.7 | 3.5 | 0.00 | 0.00 | 0.00 | 70 | 1008.9 |
| 20260505164136 | 72 | 293 | 0.9 | 3.5 | 0.00 | 0.00 | 0.00 | 72 | 1009.1 |
| 20260505163625 | 70 | 293 | 2.6 | 3.5 | 0.00 | 0.00 | 0.00 | 72 | 1009.0 |
| 20260505163115 | 70 | 293 | 1.7 | 3.5 | 0.00 | 0.00 | 0.00 | 74 | 1008.9 |
| 20260505162605 | 70 | 315 | 1.7 | 3.5 | 0.00 | 0.00 | 0.00 | 73 | 1009.0 |
| 20260505161545 | 70 | 315 | 1.7 | 3.5 | 0.00 | 0.00 | 0.00 | 74 | 1009.4 |
| 20260505161034 | 70 | 0 | 1.7 | 3.5 | 0.00 | 0.00 | 0.00 | 73 | 1009.6 |
| 20260505160524 | 70 | 23 | 1.7 | 3.5 | 0.00 | 0.00 | 0.00 | 73 | 1009.8 |
| 20260505152404 | 69 | 293 | 1.7 | 3.5 | 0.00 | 0.00 | 0.00 | 71 | 1010.0 |
| 20260505151854 | 69 | 0 | 1.7 | 1.7 | 0.00 | 0.00 | 0.00 | 71 | 1010.1 |
| 20260505151343 | 68 | 293 | 0.9 | 3.5 | 0.00 | 0.00 | 0.00 | 74 | 1010.1 |
| 20260505150834 | 68 | 293 | 1.7 | 3.5 | 0.00 | 0.00 | 0.00 | 72 | 1010.1 |
| 20260505150323 | 68 | 338 | 1.7 | 3.5 | 0.00 | 0.00 | 0.00 | 73 | 1010.1 |
| 20260505140631 | 64 | 0 | 1.7 | 3.5 | 0.00 | 0.00 | 0.00 | 78 | 1010.8 |
| 20260505140122 | 64 | 0 | 2.6 | 3.5 | 0.00 | 0.00 | 0.00 | 78 | 1011.1 |
| 20260505124900 | 59 | 293 | 1.7 | 3.5 | 0.00 | 0.00 | 0.00 | 84 | 1010.2 |
| 20260505124349 | 59 | 293 | 1.7 | 3.5 | 0.00 | 0.00 | 0.00 | 83 | 1010.2 |
| 20260505123840 | 60 | 338 | 1.7 | 1.7 | 0.00 | 0.00 | 0.00 | 83 | 1010.1 |
| 20260505122819 | 59 | 0 | 0.9 | 3.5 | 0.00 | 0.00 | 0.00 | 84 | 1010.0 |
| 20260505122309 | 59 | 0 | 1.7 | 1.7 | 0.00 | 0.00 | 0.00 | 84 | 1009.9 |
| 20260505121758 | 58 | 23 | 0.9 | 1.7 | 0.00 | 0.00 | 0.00 | 85 | 1010.0 |
| 20260505121249 | 58 | 45 | 0.9 | 1.7 | 0.00 | 0.00 | 0.00 | 86 | 1009.7 |
| 20260505120228 | 57 | 45 | 0.9 | 1.7 | 0.00 | 0.00 | 0.00 | 88 | 1009.6 |
| 20260505115719 | 56 | 180 | 0.9 | 1.7 | 0.00 | 0.00 | 0.00 | 88 | 1009.5 |
| 20260505115208 | 56 | 180 | 0.0 | 3.5 | 0.00 | 0.00 | 0.00 | 89 | 1009.7 |
| 20260505114148 | 55 | 180 | 1.7 | 3.5 | 0.00 | 0.00 | 0.00 | 92 | 1009.1 |
| 20260505113638 | 55 | 203 | 1.7 | 1.7 | 0.00 | 0.00 | 0.00 | 93 | 1009.1 |
| 20260505113128 | 54 | 225 | 0.0 | 1.7 | 0.00 | 0.00 | 0.00 | 94 | 1009.1 |
| 20260505112618 | 53 | 225 | 0.0 | 1.7 | 0.00 | 0.00 | 0.00 | 94 | 1009.0 |
| 20260505112108 | 53 | 225 | 0.0 | 0.0 | 0.00 | 0.00 | 0.00 | 94 | 1009.0 |
| 20260505111557 | 53 | 225 | 0.0 | 0.0 | 0.00 | 0.00 | 0.00 | 94 | 1008.9 |
| 20260505111048 | 54 | 225 | 0.0 | 0.0 | 0.00 | 0.00 | 0.00 | 94 | 1008.7 |
| 20260505110537 | 54 | 225 | 0.0 | 0.0 | 0.00 | 0.00 | 0.00 | 94 | 1008.8 |
| 20260505101906 | 53 | 158 | 1.7 | 3.5 | 0.00 | 0.00 | 0.00 | 93 | 1008.1 |
| 20260505100337 | 53 | 180 | 0.9 | 3.5 | 0.00 | 0.00 | 0.00 | 93 | 1007.8 |
| 20260505095826 | 53 | 135 | 1.7 | 3.5 | 0.00 | 0.00 | 0.00 | 92 | 1007.8 |
| 20260505095316 | 53 | 135 | 1.7 | 3.5 | 0.00 | 0.00 | 0.00 | 92 | 1008.0 |
| 20260505094806 | 54 | 158 | 1.7 | 3.5 | 0.00 | 0.00 | 0.00 | 92 | 1007.8 |
| 20260505094255 | 54 | 180 | 0.0 | 1.7 | 0.00 | 0.00 | 0.00 | 91 | 1007.4 |
| 20260505093235 | 55 | 180 | 0.0 | 3.5 | 0.00 | 0.00 | 0.00 | 91 | 1007.7 |
| 20260505092725 | 55 | 180 | 0.9 | 3.5 | 0.00 | 0.00 | 0.00 | 91 | 1007.7 |
| 20260505092215 | 55 | 203 | 1.7 | 3.5 | 0.00 | 0.00 | 0.00 | 90 | 1007.4 |
| 20260505090644 | 55 | 248 | 0.9 | 1.7 | 0.00 | 0.00 | 0.00 | 90 | 1007.0 |
| 20260505085625 | 56 | 270 | 0.9 | 1.7 | 0.00 | 0.00 | 0.00 | 89 | 1007.3 |
| 20260505085114 | 57 | 270 | 0.9 | 3.5 | 0.00 | 0.00 | 0.00 | 89 | 1007.3 |
| 20260505084605 | 57 | 270 | 0.9 | 3.5 | 0.00 | 0.00 | 0.00 | 89 | 1007.2 |
| 20260505084054 | 58 | 293 | 0.0 | 5.2 | 0.00 | 0.00 | 0.00 | 89 | 1007.0 |
| 20260505083034 | 59 | 270 | 1.7 | 6.1 | 0.00 | 0.00 | 0.00 | 88 | 1007.2 |
| 20260505082524 | 59 | 293 | 2.6 | 6.1 | 0.00 | 0.00 | 0.00 | 88 | 1007.2 |
| 20260505082014 | 59 | 270 | 1.7 | 12.2 | 0.00 | 0.00 | 0.00 | 87 | 1007.2 |
| 20260505081503 | 60 | 270 | 3.5 | 12.2 | 0.00 | 0.00 | 0.00 | 85 | 1007.2 |
| 20260505080954 | 65 | 315 | 4.3 | 9.6 | 0.00 | 0.00 | 0.00 | 81 | 1007.0 |
| 20260505080443 | 66 | 0 | 5.2 | 9.6 | 0.00 | 0.00 | 0.00 | 80 | 1007.1 |
| 20260505075933 | 66 | 338 | 5.2 | 9.6 | 0.00 | 0.00 | 0.00 | 80 | 1007.1 |
| 20260505075423 | 66 | 0 | 3.5 | 11.3 | 0.00 | 0.00 | 0.00 | 81 | 1006.9 |
| 20260505074914 | 66 | 338 | 6.1 | 11.3 | 0.00 | 0.00 | 0.00 | 80 | 1007.0 |
| 20260505074403 | 66 | 315 | 7.0 | 11.3 | 0.00 | 0.00 | 0.00 | 80 | 1006.8 |
| 20260505073853 | 66 | 338 | 5.2 | 12.2 | 0.00 | 0.00 | 0.00 | 81 | 1007.0 |
| 20260505073343 | 66 | 338 | 5.2 | 12.2 | 0.00 | 0.00 | 0.00 | 81 | 1006.9 |
| 20260505072832 | 66 | 0 | 5.2 | 7.8 | 0.00 | 0.00 | 0.00 | 81 | 1007.0 |
| 20260505072322 | 66 | 338 | 5.2 | 9.6 | 0.00 | 0.00 | 0.00 | 81 | 1006.8 |
| 20260505071302 | 66 | 315 | 6.1 | 9.6 | 0.00 | 0.00 | 0.00 | 81 | 1007.1 |
| 20260505070752 | 66 | 338 | 3.5 | 9.6 | 0.00 | 0.00 | 0.00 | 81 | 1007.3 |
| 20260505070242 | 66 | 338 | 3.5 | 13.9 | 0.00 | 0.00 | 0.00 | 82 | 1007.1 |
| 20260505065731 | 66 | 338 | 7.0 | 13.9 | 0.00 | 0.00 | 0.00 | 81 | 1007.1 |
| 20260505065221 | 66 | 315 | 8.7 | 14.8 | 0.00 | 0.00 | 0.00 | 80 | 1007.1 |
| 20260505064711 | 66 | 338 | 9.6 | 14.8 | 0.00 | 0.00 | 0.00 | 80 | 1007.0 |
| 20260505064201 | 66 | 0 | 8.7 | 15.6 | 0.00 | 0.00 | 0.00 | 80 | 1007.2 |
| 20260505063651 | 66 | 338 | 8.7 | 15.6 | 0.00 | 0.00 | 0.00 | 79 | 1007.3 |
| 20260505063143 | 66 | 338 | 6.1 | 13.9 | 0.00 | 0.00 | 0.00 | 80 | 1007.2 |
| 20260505062631 | 66 | 0 | 7.0 | 12.2 | 0.00 | 0.00 | 0.00 | 80 | 1007.4 |
| 20260505062120 | 66 | 338 | 8.7 | 0.0 | 0.00 | 0.00 | 0.00 | 80 | 1007.4 |
| 20260505061102 | 66 | 338 | 7.8 | 15.6 | 0.00 | 0.00 | 0.00 | 81 | 1007.3 |
| 20260505060552 | 66 | 23 | 7.8 | 19.1 | 0.00 | 0.00 | 0.00 | 80 | 1007.4 |
| 20260505060042 | 66 | 315 | 9.6 | 19.1 | 0.00 | 0.00 | 0.00 | 80 | 1007.2 |
| 20260505055531 | 66 | 315 | 9.6 | 18.2 | 0.00 | 0.00 | 0.00 | 80 | 1007.2 |
| 20260505055022 | 66 | 338 | 11.3 | 18.2 | 0.00 | 0.00 | 0.00 | 80 | 1007.2 |
| 20260505054518 | 66 | 338 | 10.4 | 18.2 | 0.00 | 0.00 | 0.00 | 79 | 1007.4 |
| 20260505054001 | 66 | 0 | 10.4 | 14.8 | 0.00 | 0.00 | 0.00 | 79 | 1007.3 |
| 20260505053451 | 66 | 315 | 10.4 | 17.4 | 0.00 | 0.00 | 0.00 | 79 | 1007.5 |
| 20260505052942 | 66 | 0 | 9.6 | 17.4 | 0.00 | 0.00 | 0.00 | 80 | 1007.3 |
| 20260505052431 | 66 | 0 | 6.1 | 15.6 | 0.00 | 0.00 | 0.00 | 79 | 1007.5 |
| 20260505051921 | 66 | 338 | 7.0 | 19.1 | 0.00 | 0.00 | 0.00 | 79 | 1007.7 |
| 20260505051410 | 66 | 338 | 11.3 | 19.1 | 0.00 | 0.00 | 0.00 | 79 | 1007.8 |
| 20260505050901 | 66 | 315 | 9.6 | 15.6 | 0.00 | 0.00 | 0.00 | 80 | 1007.5 |
| 20260505050351 | 66 | 315 | 9.6 | 17.4 | 0.00 | 0.00 | 0.00 | 79 | 1007.5 |
| 20260505041719 | 66 | 338 | 9.6 | 15.6 | 0.00 | 0.00 | 0.00 | 79 | 1008.1 |
| 20260505041210 | 65 | 338 | 8.7 | 17.4 | 0.00 | 0.00 | 0.00 | 80 | 1008.0 |
| 20260505040149 | 65 | 338 | 7.8 | 12.2 | 0.00 | 0.00 | 0.00 | 80 | 1008.1 |
| 20260505035639 | 65 | 338 | 7.0 | 14.8 | 0.00 | 0.00 | 0.00 | 80 | 1007.9 |
| 20260505035129 | 65 | 338 | 10.4 | 14.8 | 0.00 | 0.00 | 0.00 | 80 | 1008.0 |
| 20260505034619 | 65 | 338 | 6.1 | 13.9 | 0.00 | 0.00 | 0.00 | 80 | 1007.8 |
| 20260505034109 | 65 | 0 | 8.7 | 17.4 | 0.00 | 0.00 | 0.00 | 80 | 1008.0 |
| 20260505033559 | 65 | 338 | 9.6 | 17.4 | 0.00 | 0.00 | 0.00 | 80 | 1007.8 |
| 20260505032539 | 65 | 338 | 7.0 | 14.8 | 0.00 | 0.00 | 0.00 | 81 | 1007.9 |
| 20260505031519 | 65 | 0 | 7.8 | 14.8 | 0.00 | 0.00 | 0.00 | 80 | 1007.9 |
| 20260505031012 | 65 | 338 | 7.0 | 13.9 | 0.00 | 0.00 | 0.00 | 80 | 1007.9 |
| 20260505030459 | 65 | 338 | 8.7 | 14.8 | 0.00 | 0.00 | 0.00 | 81 | 1007.7 |
| 20260505025949 | 65 | 338 | 7.8 | 15.6 | 0.00 | 0.00 | 0.00 | 80 | 1007.7 |
| 20260505025438 | 65 | 0 | 9.6 | 15.6 | 0.00 | 0.00 | 0.00 | 81 | 1007.5 |
| 20260505024930 | 64 | 0 | 3.5 | 11.3 | 0.00 | 0.00 | 0.00 | 82 | 1007.7 |
| 20260505023908 | 64 | 68 | 6.1 | 12.2 | 0.00 | 0.00 | 0.00 | 81 | 1007.9 |
| 20260505023359 | 64 | 68 | 6.1 | 12.2 | 0.00 | 0.00 | 0.00 | 82 | 1007.9 |
| 20260505022848 | 64 | 23 | 6.1 | 13.0 | 0.00 | 0.00 | 0.00 | 82 | 1007.8 |
| 20260505022337 | 64 | 23 | 7.8 | 13.0 | 0.00 | 0.00 | 0.00 | 82 | 1007.9 |
| 20260505021828 | 64 | 0 | 4.3 | 11.3 | 0.00 | 0.00 | 0.00 | 82 | 1007.7 |
| 20260505021318 | 64 | 45 | 2.6 | 6.1 | 0.00 | 0.00 | 0.00 | 83 | 1007.4 |
| 20260505020807 | 64 | 45 | 2.6 | 9.6 | 0.00 | 0.00 | 0.00 | 83 | 1007.4 |
| 20260505020258 | 64 | 23 | 6.1 | 12.2 | 0.00 | 0.00 | 0.00 | 83 | 1007.5 |
| 20260505015748 | 64 | 23 | 6.1 | 12.2 | 0.00 | 0.00 | 0.00 | 82 | 1007.7 |